TimeCST,TemperatureF,Dew PointF,Humidity,Sea Level PressureIn,VisibilityMPH,Wind Direction,Wind SpeedMPH,Gust SpeedMPH,PrecipitationIn,Events,Conditions,WindDirDegrees,DateUTC
12:15 AM,32.0,30.2,93,30.00,10.0,Calm,Calm,-,N/A,,Clear,0,2013-12-28 06:15:00
12:35 AM,32.0,28.4,87,29.99,10.0,South,5.8,-,N/A,,Clear,190,2013-12-28 06:35:00
12:55 AM,30.2,28.4,93,29.99,10.0,SSW,9.2,-,N/A,,Clear,200,2013-12-28 06:55:00
1:15 AM,30.2,28.4,93,29.98,10.0,SSW,6.9,-,N/A,,Clear,200,2013-12-28 07:15:00
1:35 AM,30.2,26.6,86,29.97,10.0,SSW,8.1,-,N/A,,Clear,200,2013-12-28 07:35:00
1:55 AM,30.2,26.6,86,29.96,10.0,SSW,6.9,-,N/A,,Clear,200,2013-12-28 07:55:00
2:15 AM,28.4,26.6,93,29.95,10.0,South,6.9,-,N/A,,Clear,190,2013-12-28 08:15:00
2:35 AM,30.2,26.6,86,29.95,10.0,South,10.4,-,N/A,,Clear,170,2013-12-28 08:35:00
2:55 AM,30.2,26.6,86,29.95,10.0,South,8.1,-,N/A,,Clear,180,2013-12-28 08:55:00
3:15 AM,30.2,26.6,86,29.94,10.0,South,8.1,-,N/A,,Clear,180,2013-12-28 09:15:00
3:35 AM,30.2,26.6,86,29.93,10.0,South,11.5,-,N/A,,Clear,180,2013-12-28 09:35:00
3:55 AM,30.2,26.6,86,29.92,10.0,South,11.5,-,N/A,,Clear,170,2013-12-28 09:55:00
4:15 AM,30.2,26.6,86,29.91,10.0,South,11.5,-,N/A,,Clear,190,2013-12-28 10:15:00
4:35 AM,30.2,26.6,86,29.91,10.0,South,11.5,-,N/A,,Clear,180,2013-12-28 10:35:00
4:55 AM,28.4,26.6,93,29.90,10.0,South,11.5,-,N/A,,Clear,180,2013-12-28 10:55:00
5:15 AM,28.4,26.6,93,29.90,10.0,South,12.7,-,N/A,,Clear,180,2013-12-28 11:15:00
5:35 AM,28.4,26.6,93,29.89,10.0,South,13.8,-,N/A,,Clear,180,2013-12-28 11:35:00
5:55 AM,28.4,26.6,93,29.88,10.0,South,12.7,-,N/A,,Clear,180,2013-12-28 11:55:00
6:15 AM,28.4,26.6,93,29.88,10.0,South,13.8,-,N/A,,Clear,180,2013-12-28 12:15:00
6:35 AM,28.4,26.6,93,29.87,10.0,South,12.7,-,N/A,,Clear,180,2013-12-28 12:35:00
6:55 AM,28.4,26.6,93,29.87,10.0,South,13.8,-,N/A,,Clear,180,2013-12-28 12:55:00
7:15 AM,28.4,26.6,93,29.86,10.0,South,15.0,-,N/A,,Clear,180,2013-12-28 13:15:00
7:35 AM,28.4,26.6,93,29.85,10.0,South,15.0,-,N/A,,Clear,180,2013-12-28 13:35:00
7:55 AM,28.4,26.6,93,29.85,10.0,South,13.8,-,N/A,,Clear,180,2013-12-28 13:55:00
8:15 AM,30.2,26.6,86,29.84,10.0,South,15.0,-,N/A,,Clear,180,2013-12-28 14:15:00
8:35 AM,30.2,26.6,86,29.84,10.0,South,13.8,-,N/A,,Clear,180,2013-12-28 14:35:00
8:55 AM,32.0,26.6,80,29.84,10.0,South,15.0,-,N/A,,Clear,180,2013-12-28 14:55:00
9:15 AM,32.0,26.6,80,29.83,10.0,South,13.8,-,N/A,,Clear,180,2013-12-28 15:15:00
9:35 AM,32.0,28.4,87,29.83,10.0,South,13.8,-,N/A,,Clear,180,2013-12-28 15:35:00
9:55 AM,33.8,28.4,81,29.82,10.0,South,16.1,-,N/A,,Clear,180,2013-12-28 15:55:00
10:15 AM,33.8,30.2,87,29.82,9.0,South,15.0,-,N/A,,Clear,190,2013-12-28 16:15:00
10:35 AM,35.6,30.2,81,29.81,9.0,South,15.0,-,N/A,,Clear,190,2013-12-28 16:35:00
10:55 AM,35.6,32.0,87,29.80,9.0,South,13.8,-,N/A,,Clear,190,2013-12-28 16:55:00
11:15 AM,37.4,32.0,81,29.79,10.0,South,17.3,-,N/A,,Clear,190,2013-12-28 17:15:00
11:35 AM,39.2,32.0,75,29.77,10.0,SSW,18.4,-,N/A,,Clear,200,2013-12-28 17:35:00
11:55 AM,39.2,32.0,75,29.75,10.0,South,17.3,24.2,N/A,,Clear,190,2013-12-28 17:55:00
12:15 PM,41.0,33.8,76,29.74,10.0,South,17.3,-,N/A,,Clear,190,2013-12-28 18:15:00
12:35 PM,41.0,33.8,76,29.73,10.0,SSW,13.8,-,N/A,,Clear,200,2013-12-28 18:35:00
12:55 PM,42.8,35.6,76,29.72,10.0,South,15.0,-,N/A,,Clear,190,2013-12-28 18:55:00
1:15 PM,44.6,35.6,71,29.71,10.0,South,13.8,-,N/A,,Clear,190,2013-12-28 19:15:00
1:35 PM,44.6,35.6,71,29.70,10.0,South,15.0,-,N/A,,Clear,190,2013-12-28 19:35:00
1:55 PM,46.4,37.4,71,29.69,10.0,South,16.1,-,N/A,,Clear,190,2013-12-28 19:55:00
2:15 PM,46.4,39.2,76,29.68,10.0,South,15.0,-,N/A,,Clear,190,2013-12-28 20:15:00
2:35 PM,48.2,37.4,66,29.67,10.0,South,16.1,-,N/A,,Clear,180,2013-12-28 20:35:00
2:55 PM,48.2,37.4,66,29.67,10.0,South,16.1,-,N/A,,Clear,190,2013-12-28 20:55:00
3:15 PM,48.2,35.6,62,29.67,10.0,SSW,13.8,-,N/A,,Clear,200,2013-12-28 21:15:00
3:35 PM,48.2,35.6,62,29.67,10.0,SSW,16.1,-,N/A,,Clear,200,2013-12-28 21:35:00
3:55 PM,46.4,35.6,66,29.67,10.0,SSW,13.8,-,N/A,,Clear,200,2013-12-28 21:55:00
4:15 PM,46.4,35.6,66,29.68,10.0,SSW,11.5,-,N/A,,Clear,210,2013-12-28 22:15:00
4:35 PM,44.6,35.6,71,29.69,10.0,SSW,8.1,-,N/A,,Clear,210,2013-12-28 22:35:00
4:55 PM,42.8,33.8,70,29.70,10.0,SSW,8.1,-,N/A,,Clear,210,2013-12-28 22:55:00
5:15 PM,42.8,33.8,70,29.71,10.0,West,5.8,-,N/A,,Clear,260,2013-12-28 23:15:00
5:35 PM,41.0,32.0,70,29.72,10.0,WNW,10.4,-,N/A,,Clear,300,2013-12-28 23:35:00
5:55 PM,41.0,32.0,70,29.74,10.0,NW,12.7,-,N/A,,Clear,320,2013-12-28 23:55:00
6:15 PM,39.2,32.0,75,29.74,10.0,NNW,15.0,21.9,N/A,,Clear,330,2013-12-29 00:15:00
6:35 PM,37.4,32.0,81,29.76,10.0,NNW,17.3,26.5,N/A,,Clear,330,2013-12-29 00:35:00
6:55 PM,32.0,30.2,93,29.78,10.0,NNW,23.0,33.4,N/A,,Scattered Clouds,330,2013-12-29 00:55:00
7:15 PM,30.2,28.4,93,29.80,7.0,NNW,26.5,35.7,N/A,,Overcast,330,2013-12-29 01:15:00
7:35 PM,30.2,26.6,86,29.82,7.0,NNW,26.5,-,N/A,,Overcast,330,2013-12-29 01:35:00
7:55 PM,28.4,26.6,93,29.83,7.0,NNW,23.0,35.7,N/A,,Overcast,340,2013-12-29 01:55:00
8:15 PM,24.8,23.0,93,29.85,8.0,NNW,28.8,35.7,N/A,,Overcast,330,2013-12-29 02:15:00
8:35 PM,24.8,23.0,93,29.86,7.0,NNW,29.9,38.0,N/A,,Overcast,330,2013-12-29 02:35:00
8:55 PM,21.2,17.6,86,29.88,6.0,NNW,29.9,40.3,N/A,,Freezing Rain,330,2013-12-29 02:55:00
9:15 PM,19.4,15.8,86,29.89,5.0,NNW,23.0,39.1,N/A,,Freezing Rain,330,2013-12-29 03:15:00
9:35 PM,17.6,14.0,86,29.92,4.0,NNW,24.2,33.4,N/A,,Freezing Rain,330,2013-12-29 03:35:00
9:55 PM,17.6,12.2,79,29.93,4.0,NW,25.3,34.5,N/A,Snow,Light Snow,320,2013-12-29 03:55:00
10:15 PM,15.8,10.4,79,29.94,3.0,NNW,23.0,35.7,N/A,Snow,Light Snow,330,2013-12-29 04:15:00
10:35 PM,14.0,8.6,79,29.96,3.0,NNW,26.5,33.4,N/A,Snow,Light Snow,330,2013-12-29 04:35:00
10:55 PM,14.0,8.6,79,29.97,3.0,NNW,28.8,36.8,N/A,Snow,Light Snow,330,2013-12-29 04:55:00
11:15 PM,12.2,6.8,79,29.98,3.0,NNW,25.3,39.1,N/A,Snow,Light Snow,330,2013-12-29 05:15:00
11:35 PM,12.2,6.8,79,29.99,3.0,NW,21.9,39.1,N/A,Snow,Light Snow,320,2013-12-29 05:35:00
11:55 PM,10.4,6.8,85,30.00,2.5,NW,24.2,40.3,N/A,Snow,Light Snow,320,2013-12-29 05:55:00